[[{"header":{"parameterUnit":"m.s-1","parameterCategory":1,"la1":30.2991,"la2":30.254,"lo1":-89.0895,"lo2":-89.0444,"dy":0.0017,"dx":0.0017,"nx":28,"ny":28,"refTime":"2023-09-01T09:00:00:Z","depth":0,"parameterNumber":2,"parameterNumberName":"U-component_of_WINDS"},"data":[0,0,0,0,0,0,0,0,0,0,0,0,0,0,0,0,0,0,0,0,0,0,0,0,0,0,0,0,0,0,0,0,0,0,0,0,0,0,0,0,0,0,0,0,0,0,0,0,0,0,0,0,0,0,0,0,0,0,-2.4947,-2.4947,0,-2.5012,-2.5013,-2.5014,-2.4995,-2.4993,-2.4992,-2.4991,-2.5053,-2.5055,-2.5058,0,0,0,0,0,0,0,0,0,0,0,0,0,-2.4801,-2.4803,-2.4947,-2.4948,-2.4948,-2.5012,-2.5013,-2.5014,-2.4995,-2.4993,-2.4992,-2.499,-2.5052,-2.5055,-2.5058,0,0,0,0,0,0,0,0,0,0,0,0,0,-2.4865,-2.4804,-2.4947,-2.4947,-2.4947,-2.5012,-2.5013,-2.5014,-2.4995,-2.4993,-2.4991,-2.4989,-2.505,-2.5055,-2.5059,-2.5125,0,0,-2.5072,-2.5074,0,0,0,0,0,0,0,0,-2.4861,-2.487,-2.4946,-2.4947,-2.4948,-2.4993,-2.4984,-2.5051,-2.4996,-2.4977,-2.4991,-2.4988,-2.5034,-2.504,-2.5056,-2.5128,-2.5131,-2.5072,-2.5075,-2.5077,-2.5078,0,0,0,0,0,0,0,-2.4857,-2.4867,-2.4972,-2.4947,-2.4948,-2.4942,-2.4949,-2.4997,-2.5016,-2.4978,-2.4977,-2.4986,-2.5034,-2.5052,-2.5057,-2.5132,-2.5072,-2.5076,-2.5079,-2.5081,-2.5261,-2.5263,0,0,0,0,0,0,-2.4852,-2.4864,-2.497,-2.4974,-2.4899,-2.4946,-2.4954,-2.4981,-2.5015,-2.5019,-2.4987,-2.4984,-2.5046,-2.5052,-2.5059,-2.5138,-2.5077,-2.5081,-2.5083,-2.5259,-2.5261,-2.5264,0,0,0,0,0,0,-2.4849,-2.4862,-2.4968,-2.4919,-2.4932,-2.4951,-2.4981,-2.4983,-2.5001,-2.5022,-2.5025,-2.5002,-2.5044,-2.5053,-2.5109,-2.514,-2.5083,-2.5087,-2.5256,-2.526,-2.5263,-2.5297,0,0,0,0,0,0,-2.4845,-2.4861,-2.4887,-2.492,-2.4934,-2.5018,-2.4983,-2.4986,-2.5009,-2.5006,-2.5037,-2.504,-2.5043,-2.5103,-2.5114,-2.5145,-2.509,-2.5253,-2.5258,-2.5262,-2.5293,-2.5301,-2.5308,0,0,0,0,0,-2.484,-2.4894,-2.4889,-2.4902,-2.4968,-2.502,-2.5028,-2.5033,-2.5012,-2.5037,-2.5051,-2.5039,-2.5136,-2.5109,-2.5121,-2.5154,-2.5251,-2.5256,-2.5261,-2.529,-2.53,-2.5308,0,0,0,0,0,0,-2.4863,-2.4898,-2.4893,-2.4959,-2.4987,-2.5016,-2.5049,-2.5043,-2.5076,-2.5071,-2.5074,-2.5081,-2.5138,-2.5152,-2.5121,-2.522,-2.519,-2.5198,-2.5208,-2.5218,-2.5225,-2.5219,-2.5094,0,0,0,0,0,-2.4876,-2.4916,-2.4944,-2.5,-2.5014,-2.503,-2.5052,-2.5054,-2.5082,-2.5093,-2.511,-2.5136,-2.5173,-2.5196,-2.5231,-2.5297,-2.5302,-2.5325,-2.5333,-2.5339,-2.5344,-2.5378,-2.5388,-2.528,-2.528,-2.528,0,0,-2.4902,-2.4927,-2.4952,-2.5005,-2.5027,-2.5067,-2.5039,-2.5083,-2.5112,-2.5099,-2.5152,-2.5167,-2.5196,-2.5257,-2.5284,-2.527,-2.5376,-2.5345,-2.535,-2.5352,-2.5384,-2.5395,-2.5404,-2.5283,-2.5283,-2.5282,0,0,-2.4971,-2.4994,-2.5043,-2.5065,-2.5099,-2.5109,-2.5121,-2.5152,-2.5162,-2.5216,-2.5207,-2.5241,-2.5304,-2.5325,-2.5344,-2.5422,-2.5411,-2.5434,-2.5471,-2.5504,-2.5512,-2.552,-2.5546,-2.5555,-2.544,-2.544,-2.544,0,-2.4998,-2.506,-2.5068,-2.5113,-2.5135,-2.5128,-2.5175,-2.5197,-2.5239,-2.5255,-2.5239,-2.5318,-2.5337,-2.5402,-2.5421,-2.5438,-2.5449,-2.5428,-2.5511,-2.5519,-2.5526,-2.555,-2.556,-2.5442,-2.5442,-2.5441,-2.5441,0,-2.5092,-2.5135,-2.517,-2.5213,-2.524,-2.5286,-2.5299,-2.5326,-2.5325,-2.5337,-2.5392,-2.5415,-2.5454,-2.547,-2.547,-2.5535,-2.5525,-2.551,-2.548,-2.5538,-2.5561,-2.5571,-2.5445,-2.5444,-2.5444,-2.5443,0,0,-2.5173,-2.5222,-2.5234,-2.5254,-2.5291,-2.5324,-2.5369,-2.5409,-2.5431,-2.5461,-2.5498,-2.5552,-2.5539,-2.5561,-2.5563,-2.5592,-2.565,-2.5574,-2.5574,-2.5585,-2.5721,-2.573,-2.5741,-2.5645,-2.5647,-2.5648,-2.5718,0,-2.5243,-2.5325,-2.5333,-2.5405,-2.5444,-2.5438,-2.5477,-2.5504,-2.5516,-2.5549,-2.5562,-2.56,-2.5581,-2.5594,-2.5623,-2.5637,-2.5677,-2.5632,-2.5676,-2.5678,-2.5666,-2.5753,-2.5762,-2.5827,-2.5727,-2.5729,-2.573,0,-2.5335,-2.5369,-2.5446,-2.5478,-2.5494,-2.553,-2.5567,-2.56,-2.5629,-2.5636,-2.5661,-2.566,-2.5705,-2.5676,-2.5737,-2.5706,-2.5725,-2.5735,-2.5737,-2.5739,-2.5705,-2.5754,-2.5848,-2.5856,-2.5744,-2.5743,-2.5742,0,-2.5384,-2.545,-2.5503,-2.552,-2.556,-2.5585,-2.5602,-2.563,-2.5653,-2.5686,-2.57,-2.5737,-2.5756,-2.5784,-2.5792,-2.5771,-2.5852,-2.5824,-2.5857,-2.5857,-2.5872,-2.587,-2.5967,-2.5889,-2.5889,-2.5889,-2.5888,0,-2.5459,-2.5505,-2.5526,-2.5559,-2.561,-2.5619,-2.5669,-2.5685,-2.571,-2.5745,-2.5743,-2.5774,-2.5784,-2.5818,-2.5824,-2.5873,-2.5882,-2.5887,-2.5888,-2.5886,-2.5885,-2.5896,-2.589,-2.5891,-2.5891,-2.589,-2.589,0,-2.552,-2.5537,-2.5595,-2.5629,-2.5638,-2.5674,-2.5702,-2.5733,-2.5745,-2.5789,-2.58,-2.5819,-2.5858,-2.587,-2.5917,-2.5921,-2.5978,-2.5975,-2.5968,-2.5967,-2.5998,-2.5994,-2.6103,-2.6116,-2.6032,-2.6033,-2.6034,0,-2.5566,-2.5602,-2.564,-2.5664,-2.5682,-2.5721,-2.5745,-2.5756,-2.5781,-2.5818,-2.5844,-2.5884,-2.5915,-2.5978,-2.5995,-2.6031,-2.6028,-2.6064,-2.6033,-2.603,-2.6025,-2.6022,-2.6025,-2.6068,-2.6069,-2.607,-2.6071,0,-2.5644,-2.5651,-2.5687,-2.5726,-2.5756,-2.5787,-2.5816,-2.5836,-2.5851,-2.5879,-2.592,-2.5945,-2.5994,-2.6032,-2.6069,-2.6085,-2.6079,-2.6081,-2.609,-2.6086,-2.608,-2.6081,-2.598,-2.6077,-2.6077,-2.6076,-2.6076,-2.6076,-2.5697,-2.5728,-2.576,-2.58,-2.5824,-2.5852,-2.5883,-2.59,-2.5935,-2.5977,-2.5981,-2.6025,-2.6054,-2.6103,-2.6121,-2.6154,-2.6144,-2.6157,-2.616,-2.6163,-2.6164,-2.6077,-2.6161,-2.6161,-2.6161,-2.6161,-2.6161,0,-2.5773,-2.5794,-2.5831,-2.5873,-2.5905,-2.59,-2.5933,-2.5959,-2.5998,-2.6026,-2.6058,-2.6105,-2.6143,-2.6164,-2.6201,-2.6223,-2.6222,-2.6233,-2.6229,-2.6233,-2.6173,-2.616,-2.6233,-2.6233,-2.6233,-2.6233,-2.6233,-2.6233,-2.5816,-2.5868,-2.5878,-2.5942,-2.5962,-2.6006,-2.6025,-2.605,-2.6073,-2.6125,-2.6157,-2.6172,-2.6197,-2.6236,-2.627,-2.6275,-2.6287,-2.6299,-2.6302,-2.6245,-2.6237,-2.623,-2.6218,-2.6302,-2.6302,-2.6359,-2.636,-2.636]},{"header":{"parameterUnit":"m.s-1","parameterCategory":1,"la1":30.2991,"la2":30.254,"lo1":-89.0895,"lo2":-89.0444,"dy":0.0017,"dx":0.0017,"nx":28,"ny":28,"refTime":"2023-09-01T09:00:00:Z","depth":0,"parameterNumber":3,"parameterNumberName":"V-component_of_WINDS"},"data":[0,0,0,0,0,0,0,0,0,0,0,0,0,0,0,0,0,0,0,0,0,0,0,0,0,0,0,0,0,0,0,0,0,0,0,0,0,0,0,0,0,0,0,0,0,0,0,0,0,0,0,0,0,0,0,0,0,0,-0.4634,-0.4635,0,-0.4746,-0.4747,-0.4749,-0.4845,-0.4846,-0.4847,-0.4848,-0.4966,-0.4969,-0.4971,0,0,0,0,0,0,0,0,0,0,0,0,0,-0.4505,-0.4507,-0.4634,-0.4635,-0.4636,-0.4746,-0.4747,-0.4749,-0.4845,-0.4846,-0.4847,-0.4848,-0.4966,-0.4968,-0.4971,0,0,0,0,0,0,0,0,0,0,0,0,0,-0.4583,-0.4507,-0.4633,-0.4697,-0.4704,-0.4746,-0.4748,-0.4749,-0.4844,-0.4846,-0.4848,-0.4849,-0.4965,-0.4968,-0.4971,-0.4959,0,0,-0.4981,-0.4983,0,0,0,0,0,0,0,0,-0.4579,-0.4588,-0.4687,-0.4693,-0.4701,-0.4783,-0.4746,-0.482,-0.4844,-0.4791,-0.4848,-0.485,-0.4904,-0.4913,-0.493,-0.4965,-0.497,-0.4981,-0.4983,-0.4985,-0.4986,0,0,0,0,0,0,0,-0.4573,-0.4584,-0.4678,-0.4688,-0.4697,-0.4721,-0.4734,-0.476,-0.4838,-0.4796,-0.4803,-0.4815,-0.4909,-0.4927,-0.4934,-0.4972,-0.4981,-0.4984,-0.4986,-0.4988,-0.5002,-0.5001,0,0,0,0,0,0,-0.4557,-0.4578,-0.4675,-0.4682,-0.4642,-0.4722,-0.4737,-0.4755,-0.4838,-0.4852,-0.4814,-0.4819,-0.4921,-0.493,-0.4938,-0.493,-0.4985,-0.4988,-0.499,-0.5004,-0.5002,-0.5,0,0,0,0,0,0,-0.4554,-0.4565,-0.467,-0.4632,-0.4647,-0.4723,-0.4743,-0.4756,-0.4775,-0.4851,-0.4865,-0.4818,-0.4922,-0.4934,-0.4953,-0.4935,-0.4989,-0.4992,-0.5005,-0.5003,-0.5001,-0.4912,0,0,0,0,0,0,-0.455,-0.4563,-0.4559,-0.4631,-0.4649,-0.4682,-0.4742,-0.4757,-0.478,-0.4788,-0.4859,-0.4872,-0.4924,-0.4948,-0.4956,-0.494,-0.4995,-0.5007,-0.5004,-0.5002,-0.4916,-0.4906,-0.4898,0,0,0,0,0,-0.4545,-0.453,-0.4558,-0.4569,-0.4645,-0.4681,-0.4691,-0.4751,-0.4778,-0.4775,-0.4823,-0.487,-0.4935,-0.4949,-0.4959,-0.4944,-0.5009,-0.5005,-0.5002,-0.4921,-0.4908,-0.4898,0,0,0,0,0,0,-0.4456,-0.4541,-0.4573,-0.4581,-0.4622,-0.4697,-0.4694,-0.4736,-0.4772,-0.4778,-0.4852,-0.4867,-0.4878,-0.4913,-0.4927,-0.4937,-0.4978,-0.4977,-0.4913,-0.4902,-0.4893,-0.4884,-0.4997,0,0,0,0,0,-0.4436,-0.4457,-0.4531,-0.4531,-0.455,-0.4618,-0.4636,-0.4678,-0.4725,-0.4744,-0.4794,-0.4838,-0.4869,-0.4888,-0.492,-0.4922,-0.4939,-0.4917,-0.4908,-0.49,-0.4897,-0.49,-0.4891,-0.4989,-0.4989,-0.4989,0,0,-0.4398,-0.4447,-0.4456,-0.4514,-0.4552,-0.4572,-0.4633,-0.4652,-0.4668,-0.4747,-0.4768,-0.4806,-0.4861,-0.4871,-0.4878,-0.4901,-0.4874,-0.4895,-0.4888,-0.489,-0.4896,-0.4887,-0.4878,-0.4986,-0.4987,-0.4987,0,0,-0.4337,-0.4376,-0.438,-0.4416,-0.4471,-0.4516,-0.4517,-0.4585,-0.4613,-0.4634,-0.4694,-0.4715,-0.4766,-0.4802,-0.4827,-0.4779,-0.4823,-0.4788,-0.4739,-0.4741,-0.4734,-0.4727,-0.471,-0.4703,-0.4786,-0.4785,-0.4785,0,-0.4282,-0.4315,-0.4377,-0.4393,-0.4416,-0.4487,-0.4492,-0.4524,-0.4587,-0.4602,-0.4627,-0.4692,-0.4734,-0.4753,-0.4741,-0.4759,-0.4763,-0.478,-0.473,-0.4724,-0.4719,-0.4703,-0.4696,-0.4781,-0.4781,-0.4782,-0.4782,0,-0.4244,-0.4265,-0.4262,-0.4319,-0.4343,-0.4353,-0.4418,-0.4435,-0.4474,-0.4517,-0.4538,-0.4591,-0.4635,-0.4643,-0.4682,-0.4667,-0.468,-0.4716,-0.4759,-0.4704,-0.469,-0.4684,-0.4774,-0.4776,-0.4777,-0.4778,0,0,-0.4131,-0.4222,-0.4219,-0.4246,-0.4311,-0.433,-0.4343,-0.4385,-0.4397,-0.4439,-0.4451,-0.4493,-0.4526,-0.4555,-0.4599,-0.4601,-0.4559,-0.4638,-0.464,-0.462,-0.4545,-0.4517,-0.4509,-0.4588,-0.4588,-0.4587,-0.454,0,-0.408,-0.4106,-0.4163,-0.4172,-0.4192,-0.4259,-0.4271,-0.4313,-0.4353,-0.4377,-0.4422,-0.445,-0.4492,-0.451,-0.4515,-0.4563,-0.4545,-0.4567,-0.4602,-0.4602,-0.4585,-0.4502,-0.4472,-0.4425,-0.4535,-0.4534,-0.4534,0,-0.4025,-0.4061,-0.4071,-0.4134,-0.4145,-0.4154,-0.4196,-0.4218,-0.4267,-0.4296,-0.4327,-0.4376,-0.4394,-0.4433,-0.4459,-0.4473,-0.4491,-0.4517,-0.4516,-0.4522,-0.4564,-0.4504,-0.4412,-0.4405,-0.4526,-0.4527,-0.4527,0,-0.394,-0.3991,-0.4003,-0.4024,-0.4099,-0.4103,-0.4135,-0.4185,-0.4206,-0.4244,-0.4258,-0.4298,-0.4319,-0.4349,-0.4407,-0.443,-0.4426,-0.4471,-0.4451,-0.445,-0.4447,-0.4446,-0.4356,-0.4459,-0.4459,-0.4459,-0.4459,0,-0.3878,-0.3882,-0.3966,-0.3973,-0.3979,-0.4044,-0.4049,-0.4087,-0.4131,-0.4148,-0.4209,-0.4223,-0.4299,-0.4323,-0.4369,-0.4383,-0.4393,-0.4417,-0.4429,-0.4411,-0.4408,-0.4424,-0.4428,-0.4457,-0.4458,-0.4458,-0.4458,0,-0.3784,-0.3841,-0.3859,-0.3927,-0.3944,-0.3946,-0.4005,-0.4015,-0.4059,-0.4079,-0.4088,-0.4156,-0.4187,-0.4248,-0.4296,-0.4327,-0.4331,-0.4352,-0.4313,-0.4321,-0.4297,-0.4298,-0.4214,-0.4206,-0.4313,-0.4312,-0.4311,0,-0.3741,-0.3745,-0.3813,-0.3828,-0.3856,-0.388,-0.3901,-0.3965,-0.3985,-0.4041,-0.4044,-0.4079,-0.4111,-0.4157,-0.4212,-0.4249,-0.4272,-0.4239,-0.4278,-0.4259,-0.4271,-0.4269,-0.427,-0.4231,-0.4229,-0.4228,-0.4227,0,-0.3657,-0.3684,-0.3712,-0.3749,-0.3772,-0.3805,-0.3841,-0.385,-0.3923,-0.3943,-0.3974,-0.3998,-0.4046,-0.4081,-0.4125,-0.416,-0.4205,-0.4214,-0.4212,-0.4193,-0.417,-0.4182,-0.4289,-0.4216,-0.4217,-0.4218,-0.4218,-0.4219,-0.3587,-0.3593,-0.3641,-0.367,-0.3704,-0.3736,-0.3748,-0.3792,-0.3819,-0.3862,-0.3899,-0.3927,-0.3976,-0.4041,-0.4072,-0.4095,-0.4117,-0.4114,-0.4113,-0.4111,-0.4103,-0.4166,-0.4104,-0.4104,-0.4104,-0.4105,-0.4105,0,-0.3505,-0.354,-0.3565,-0.3613,-0.3635,-0.3675,-0.3717,-0.3733,-0.3757,-0.3798,-0.3827,-0.3863,-0.3896,-0.3953,-0.3991,-0.3999,-0.4021,-0.4007,-0.4007,-0.4013,-0.4081,-0.4079,-0.3988,-0.3988,-0.3988,-0.3988,-0.3988,-0.3988,-0.3466,-0.3478,-0.3511,-0.354,-0.3576,-0.3602,-0.3622,-0.3652,-0.3685,-0.3722,-0.3749,-0.3785,-0.3833,-0.3875,-0.3907,-0.3923,-0.3935,-0.3913,-0.3936,-0.3998,-0.4009,-0.4019,-0.4018,-0.3915,-0.3915,-0.3867,-0.3866,-0.3866]}]]